COSMOS 595

Satellite information

Favourite Embed

Satellite Type and Status

PAYLOADIN ORBIT

Key statistics

Satellite COSMOS 595 at a glance.

Uptime

19022

Days in orbit

Revolutions

≈ 12.6

Per day

Orbit

LEO

Low Earth Orbit

Inclination

74.0

Latest

Satellite identification and parameters

Extended collection of information and parameters for COSMOS 595.

Object identification

Identified? True

Debris? False

Object name: COSMOS 595

International designator: 1973-069H

Object number (NORAD): 6852

Object ID (CCSDS): 6852

Country: COMMONWEALTH OF INDEPENDENT STATES (CIS)

Current information (Y/N): Y

RCS size: MEDIUM

Orbital parameters

Period: 114.697 minutes

Inclination: 74.0015 deg

SMA: 7819.784 km

Apoapsis: 1484.457 km

Periapsis: 1398.842 km

RAAN: 331.6865 deg

Eccentricy: 0.00547424

Argument of periapsis: 94.6415 deg

Mean anomaly: 61.8254 deg

Mean motion: 12.55482338 rev/day

Mean motion (dot): 0.00000006 rev/day2

B* drag term: 0.00013412232 1/REarth

Two-line elements (TLE)

Creation date: Oct. 31, 2025, 3 a.m.

Reference frame: TEME

Reference center: EARTH

Epoch: Oct. 30, 2025, 1:33 p.m. UTC

TLE line 0: 0 COSMOS 595

TLE line 1: 1 06852U 73069H 25303.56527233 .00000006 00000-0 13412-3 0 9992

TLE line 2: 2 06852 74.0015 331.6865 0054742 94.6415 61.8254 12.55482338386715

Live tracking on map

Real-time ground track for satellite COSMOS 595.

In-orbit conjunctions

There are no conjunctions computed for COSMOS 595, at the moment. Check back to stay up to date, as we update our databases every day.

Go to all conjunctions

Associated space launch

Military communications satellites

COSMOS 595 was lifted into orbit during the mission ‘Kosmos-3M | Strela-1M 49-56’, on board a Kosmos-3M space rocket.

The launch took place on Oct. 2, 1973, 9:46 p.m. from 132/2.

For more information about the launch, click the button.

Launch to space Kosmos-3M | Strela-1M 49-56
Kosmos-3M | Strela-1M 49-56

Agency: N/A

Status: Launch Successful

Launch date: Oct. 2, 1973, 9:46 p.m. UTC

Rocket: Kosmos-3M

Launch pad: 132/2

Location: Plesetsk Cosmodrome, Russian Federation

...

Latest news about this satellite

There are no fresh news available about this satellite. Check back as we update our databases every day.


Newsletter sign-up

Weekly statistics, charts and insights to help you stay on top of the space industry.